Theta_e
311 311 311 310 310 310 309 310 308 311 312 319 323 325 329 334 336 335 335 338 340 342 346 352 361 364 367 363 366 362 370 369 368 370 371 372 377 373 369 368 364 363 361 359
310 313 310 308 310 310 311 311 311 312 311 322 325 330 332 334 338 341 342 339 339 341 345 348 353 357 365 368 368 366 368 366 373 377 378 375 377 372 369 367 362 357 357 356
308 313 310 306 310 311 311 313 312 309 316 322 323 328 332 335 338 339 340 345 347 345 342 346 351 358 358 363 366 369 371 371 374 376 375 376 369 346 332 333 350 350 352 351
300 308 302 311 320 316 313 313 316 317 321 325 326 331 334 336 338 340 341 344 349 348 348 345 345 352 359 360 368 370 372 373 375 374 371 357 333 334 344 343 330 341 345 344
306 306 304 307 316 314 313 313 319 317 324 326 328 330 332 335 336 338 343 344 350 351 347 351 351 352 359 359 361 364 365 370 371 362 343 337 337 337 335 349 346 347 345 342
308 303 298 311 316 323 321 310 325 326 325 326 326 319 329 334 335 337 341 344 348 356 352 356 358 357 359 360 362 363 367 350 341 342 339 343 341 336 343 346 342 341 340 336
305 305 308 318 317 321 306 317 329 329 331 331 330 332 334 335 336 341 341 343 347 355 358 359 362 361 362 363 363 357 352 351 347 351 348 339 344 349 350 345 340 339 337 335
309 306 303 324 322 315 323 326 327 330 331 330 331 332 333 334 335 342 342 343 343 349 359 362 363 363 363 364 355 355 355 352 353 354 344 342 348 346 342 340 337 335 332 329
313 312 317 326 324 326 327 327 326 326 326 328 330 332 333 334 334 337 344 345 345 346 358 362 364 363 358 350 355 354 356 355 354 350 346 344 345 341 337 337 334 333 327 322
314 318 318 322 325 326 327 326 327 328 328 328 327 329 332 334 334 336 342 346 349 349 354 355 358 359 357 354 352 348 351 353 348 345 343 345 342 341 336 333 336 332 330 322
317 320 322 323 325 325 326 326 326 327 327 328 329 329 329 332 334 335 344 347 350 351 355 358 357 356 355 353 351 348 348 349 350 344 343 343 342 340 338 340 336 337 334 328
314 321 323 321 324 325 323 323 325 327 327 328 329 330 333 331 335 336 338 350 352 353 354 357 358 357 357 353 351 349 350 346 343 342 340 341 336 331 307 314 309 309 314 323
319 324 324 324 325 325 324 324 324 325 328 326 329 331 334 333 335 333 340 343 353 355 354 356 357 355 359 357 355 353 347 349 344 337 339 337 338 338 329 314 305 305 308 308
323 323 320 322 321 325 325 325 324 325 326 327 328 332 333 333 335 338 340 345 349 357 355 355 354 355 357 356 353 351 350 325 339 338 337 339 342 340 336 330 329 325 310 314
323 324 324 327 328 328 328 326 324 324 324 325 328 331 332 332 335 338 345 349 351 355 354 354 352 354 355 353 352 349 349 343 342 341 340 340 344 343 338 335 331 324 321 311
325 326 328 327 330 332 331 328 325 325 325 325 327 331 333 336 339 343 347 351 350 349 352 353 353 353 353 352 350 346 344 333 337 342 340 343 341 336 335 334 328 323 318 315
325 326 328 328 331 332 332 331 327 326 327 327 329 333 335 337 339 343 347 350 353 355 354 352 349 352 348 345 347 343 341 341 336 341 338 342 339 339 335 330 325 319 319 317
331 331 331 332 332 333 334 334 331 329 329 330 333 336 336 338 339 342 345 349 351 350 348 348 350 349 347 343 342 340 340 341 341 342 339 342 343 338 335 330 324 321 318 314
328 328 329 331 334 335 337 333 333 333 333 334 335 336 338 341 343 345 346 347 347 345 345 348 333 336 344 341 339 339 336 334 334 335 337 335 341 335 333 328 323 318 316 319
325 326 328 329 333 335 337 335 333 333 335 335 337 339 340 343 345 347 348 346 345 343 345 342 341 343 341 339 335 336 334 332 330 332 333 335 334 332 331 318 319 319 320 321
322 323 324 326 330 334 336 339 341 340 344 345 342 342 342 345 347 348 345 341 346 340 340 330 341 340 340 338 335 335 333 333 332 332 327 332 334 331 325 321 320 321 321 320
322 322 322 324 326 330 334 336 339 340 342 343 344 345 345 342 344 345 347 344 342 318 335 339 339 326 332 329 332 333 332 330 328 326 324 328 328 325 324 322 320 322 322 323
323 323 323 323 323 324 330 334 337 336 337 341 342 343 343 340 342 340 340 343 340 329 335 334 319 319 319 332 328 324 327 327 325 324 321 321 321 321 322 324 321 318 320 323
324 324 324 324 323 323 324 330 333 336 338 340 342 343 343 341 342 342 338 322 316 325 332 326 320 316 315 328 326 320 319 320 321 318 318 311 318 320 320 319 320 319 324 322
325 324 323 323 322 320 322 325 330 333 335 337 340 341 341 343 340 341 339 335 317 326 330 312 315 315 327 326 322 319 317 317 317 317 317 319 317 320 324 323 320 324 326 324
323 321 321 323 321 322 322 322 325 329 331 331 334 341 337 341 341 338 339 331 334 324 329 323 326 325 327 325 323 317 315 315 316 315 315 317 320 321 321 321 322 324 325 326
322 313 320 320 322 321 322 322 322 325 327 331 331 336 337 337 338 333 328 335 333 331 329 327 327 324 328 326 323 319 321 318 313 316 317 318 318 320 322 324 326 327 327 327
Wind_Speed
15 16 6 16 13 18 14 17 18 5 3 18 10 11 8 9 8 5 4 8 13 13 10 9 11 11 10 12 12 14 13 14 16 15 13 11 10 12 13 13 13 13 13 13
12 18 11 17 16 17 18 16 17 7 2 14 11 9 9 7 9 9 9 8 6 11 12 14 14 14 13 13 13 15 16 16 12 11 11 11 11 11 10 6 8 13 14 13
10 22 17 15 15 17 14 13 7 12 5 11 10 9 9 10 10 10 11 9 6 12 8 12 14 12 14 15 14 14 13 13 13 13 12 11 9 12 8 6 3 5 6 3
6 21 9 4 11 7 11 11 8 10 14 10 5 10 12 10 10 11 13 13 9 7 9 9 10 14 13 14 13 13 13 12 12 12 11 12 14 8 5 18 17 19 11 13
12 8 9 25 7 5 5 3 8 6 10 8 2 8 11 8 9 9 11 12 12 10 7 6 7 6 11 13 13 13 13 12 10 11 14 12 8 7 6 4 8 12 13 11
14 16 4 21 11 25 2 8 8 9 7 3 4 7 10 7 8 9 11 11 12 12 5 3 4 6 9 11 12 12 12 12 15 14 13 9 6 12 10 12 8 7 10 11
15 13 13 10 2 3 11 8 8 8 8 7 9 8 6 5 7 8 8 10 9 10 8 5 1 6 8 10 10 12 14 15 15 14 12 6 3 9 13 11 12 10 10 10
18 11 8 7 7 6 6 3 6 7 5 3 4 4 5 5 7 7 7 7 8 9 8 6 3 4 5 8 10 12 13 14 14 11 4 2 8 10 14 13 12 11 11 10
9 4 15 12 8 8 8 7 4 4 5 5 7 5 5 6 6 7 5 4 7 6 7 7 5 4 5 9 10 12 12 12 9 5 5 7 10 11 10 12 10 10 10 8
10 23 27 4 2 6 8 8 6 7 7 7 9 9 8 8 7 6 4 3 2 3 5 5 3 4 8 10 12 10 8 10 5 5 7 9 8 8 9 9 10 9 9 9
14 10 6 8 2 5 8 7 5 6 7 8 9 10 11 9 6 6 2 1 1 2 2 5 4 5 7 8 9 8 7 8 7 6 8 9 8 7 9 10 8 11 10 10
6 11 14 3 7 7 9 10 10 9 8 8 9 10 10 12 8 5 7 5 3 3 3 5 5 6 9 9 8 10 9 6 6 5 7 6 7 6 15 8 8 12 10 6
9 2 13 15 12 13 14 14 14 13 10 11 11 10 10 10 13 5 6 8 6 5 5 4 4 5 6 10 11 9 8 2 4 5 6 8 8 10 8 7 13 12 10 12
11 11 11 11 11 11 12 12 13 14 15 15 13 7 8 6 10 6 7 8 8 7 7 6 6 6 7 7 7 7 6 9 7 8 7 9 10 10 11 10 10 8 4 4
9 11 15 15 16 17 17 16 16 14 13 14 13 7 6 7 8 7 7 6 5 7 7 6 6 6 5 6 7 7 8 7 9 9 9 9 9 9 8 11 11 11 9 5
11 15 14 13 14 17 16 15 17 15 13 13 13 7 5 5 4 5 4 4 5 7 8 8 7 7 5 7 6 6 7 7 8 6 7 8 9 8 8 11 10 10 10 10
12 11 12 13 14 15 15 15 13 13 10 11 11 9 5 5 4 3 5 6 6 4 2 3 5 1 4 4 5 5 6 6 8 8 8 11 11 11 10 10 10 10 10 12
8 9 11 13 14 14 14 12 12 11 9 10 12 6 5 7 7 6 6 5 6 5 4 3 4 2 7 6 5 3 5 7 7 7 8 13 10 9 9 11 12 10 9 5
6 8 10 12 13 13 13 10 10 10 10 9 8 10 11 8 6 6 6 7 8 7 8 6 6 4 5 7 5 5 5 5 5 3 5 10 7 3 9 11 11 12 9 12
7 8 10 11 12 12 13 8 8 8 9 9 8 7 8 8 7 7 6 8 6 5 4 6 6 3 1 10 8 4 5 6 6 5 6 6 8 5 10 12 13 11 9 11
6 8 10 11 11 10 10 12 12 8 10 10 6 8 9 7 5 5 6 6 6 5 1 4 3 2 3 3 6 5 4 6 5 6 4 9 6 10 12 13 12 9 7 10
6 8 10 11 11 10 8 9 7 8 8 8 7 7 7 5 5 6 6 5 7 5 5 6 4 6 5 4 2 3 5 6 6 4 3 1 6 9 9 6 3 2 5 5
6 8 9 10 10 12 11 8 7 6 8 9 8 8 7 5 6 6 6 7 2 6 7 9 10 7 7 5 5 3 3 6 7 7 6 5 6 7 3 2 7 5 4 6
6 8 9 11 10 11 10 9 9 7 5 5 7 6 8 5 3 5 10 9 10 5 4 7 8 4 10 3 3 5 3 4 7 8 9 10 9 6 7 6 5 4 5 5
8 9 13 10 11 9 10 9 9 8 6 6 3 4 5 6 6 2 5 7 11 8 8 7 5 7 5 4 5 5 4 4 6 9 8 9 9 5 3 5 5 3 6 6
9 10 10 12 10 9 8 8 7 6 4 7 6 2 4 5 4 4 4 8 8 6 8 8 7 7 4 6 8 7 7 9 9 9 10 7 7 8 6 4 6 8 8 9
11 12 11 10 7 9 7 7 7 8 8 8 4 4 5 7 8 5 6 9 8 8 8 8 6 6 9 8 11 11 10 10 9 9 8 7 9 8 9 13 11 10 6 7
Wind_Direction
276 292 299 284 257 212 239 257 254 337 203 102 74 58 44 34 21 6 245 241 213 210 212 204 184 202 201 196 196 195 192 199 205 201 202 206 185 187 181 183 187 179 182 177
308 275 256 257 255 267 226 232 255 287 300 68 71 65 41 24 26 20 2 327 289 194 204 204 207 203 202 198 195 198 193 203 195 193 192 192 177 173 175 180 224 177 178 173
300 305 232 234 246 233 241 225 239 244 62 49 53 70 55 39 46 25 15 348 301 303 236 215 201 194 208 197 194 195 190 195 188 186 184 179 138 92 91 92 146 58 351 52
137 285 282 285 6 217 237 210 219 286 78 63 32 95 71 41 37 16 9 3 347 294 274 263 230 178 189 182 191 189 184 188 178 178 174 111 111 104 115 141 156 179 176 165
289 192 194 300 200 200 226 284 263 242 77 69 346 147 108 64 39 22 6 8 1 343 322 309 318 176 164 173 182 187 184 181 169 106 95 97 86 36 325 234 160 183 183 146
253 284 198 272 9 360 359 207 39 14 60 348 286 253 81 48 30 27 7 16 14 360 9 73 274 114 156 171 182 185 177 101 117 125 131 137 138 159 240 227 184 145 138 128
218 256 272 107 227 314 310 50 25 25 53 12 22 23 47 29 19 7 359 13 36 29 25 36 225 154 180 165 167 109 129 134 140 156 163 187 144 143 147 145 117 138 139 137
304 224 239 15 176 206 94 96 14 0 55 22 7 354 355 356 351 10 344 8 21 53 35 38 47 150 157 119 126 144 146 150 164 176 193 192 138 125 125 126 137 147 144 152
279 61 317 345 50 67 57 84 27 10 345 328 304 302 316 302 309 327 353 353 357 38 64 44 19 101 121 128 153 158 162 168 159 219 222 188 152 156 133 138 157 165 161 152
287 123 198 152 77 51 44 42 7 30 353 335 311 298 291 298 305 321 352 277 35 6 73 95 82 107 136 158 157 162 175 177 182 187 161 171 158 160 151 144 174 170 166 163
299 284 196 155 106 26 24 350 347 326 334 337 320 305 286 268 260 279 321 227 176 168 142 123 142 135 138 152 160 166 182 205 210 181 173 166 171 173 173 166 187 179 174 183
313 28 337 17 346 313 304 301 295 284 293 309 305 297 290 277 264 260 286 152 192 187 174 148 166 155 150 160 172 191 203 189 177 182 172 169 150 133 43 73 90 67 67 211
296 201 216 288 300 298 287 279 274 275 271 290 291 292 285 267 265 228 284 282 195 206 196 184 192 174 157 173 190 196 228 199 146 169 160 167 190 163 132 48 61 56 73 68
299 315 295 287 291 302 305 299 291 270 263 265 273 282 278 252 266 288 289 271 234 185 203 192 210 190 195 190 205 220 229 120 173 169 170 186 199 176 164 164 163 151 68 109
276 294 316 318 299 289 287 282 276 279 278 269 264 248 265 270 263 268 261 260 221 190 188 182 198 224 182 224 225 234 212 171 202 171 188 215 185 176 175 173 169 158 140 123
308 300 295 293 311 305 281 272 272 272 273 269 261 265 241 260 281 292 255 231 232 207 197 196 198 196 194 234 218 225 216 270 193 178 164 190 174 196 199 176 162 154 166 158
288 297 324 314 316 308 296 297 267 272 277 273 259 250 241 251 271 244 252 225 235 274 214 243 264 149 186 238 267 218 221 207 205 200 174 193 190 198 195 161 165 171 169 157
285 298 312 317 316 308 298 282 279 283 279 273 270 289 275 251 252 271 228 214 234 223 216 237 234 233 177 184 205 206 213 207 205 201 178 199 206 195 170 161 179 165 148 141
312 318 324 318 322 313 308 287 272 268 275 280 268 251 248 253 265 252 232 216 220 229 221 167 117 243 179 177 195 193 195 192 192 194 203 229 248 206 168 159 155 166 186 155
325 326 325 331 330 333 322 314 286 275 270 273 264 263 267 256 241 235 217 231 243 31 76 114 203 171 223 154 174 186 191 193 188 199 211 247 247 196 156 150 168 185 203 149
337 336 337 336 337 336 336 345 330 319 331 337 313 292 288 270 250 227 218 240 175 139 80 144 258 145 170 157 176 176 191 190 198 180 199 228 194 159 150 167 187 196 166 164
357 349 344 346 335 330 334 313 303 339 326 323 323 314 297 277 230 233 252 298 121 167 210 205 134 48 102 139 141 171 173 170 162 140 116 345 113 149 152 169 109 352 213 175
353 343 339 341 334 336 322 314 324 349 335 336 332 318 301 263 214 220 221 189 155 170 254 73 104 128 190 217 128 144 171 158 157 143 122 111 121 106 110 178 204 228 175 154
327 323 330 315 332 322 325 330 317 313 319 311 282 320 300 262 239 245 110 72 90 120 49 102 117 181 268 91 109 110 124 130 146 143 140 137 134 138 160 202 219 110 103 153
295 303 298 312 312 314 317 312 308 273 280 286 259 278 288 266 276 251 138 117 134 204 111 126 186 243 238 105 95 102 128 124 131 133 135 138 129 138 136 83 56 263 185 148
275 288 302 297 291 292 299 296 296 305 298 297 292 200 262 280 237 228 163 139 166 157 135 151 189 215 139 111 105 118 123 121 124 124 121 120 131 170 131 111 249 184 180 200
265 252 266 268 284 288 290 318 314 289 285 264 283 302 261 236 243 248 165 157 173 186 151 176 192 218 120 127 123 141 134 122 118 125 138 169 165 153 178 209 194 192 177 125